Regional Weather Roundup
Issued by NWS Goodland, KS

Home | Current Version | Previous Version | Graphics & Text | Print | Product List | Glossary On
Versions: 1 2 3 4 5 6 7 8 9 10 11 12 13 14 15 16 17 18 19 20 21 22 23 24 25 26 27 28 29 30 31 32 33 34 35 36 37 38 39 40 41 42 43 44 45 46 47 48 49 50
000
ASUS43 KGLD 030908
RWRGLD

GOODLAND FORECAST AREA HOURLY WEATHER ROUNDUP
NATIONAL WEATHER SERVICE GOODLAND KS
300 AM MDT MON AUG 03 2015

...OFFICIAL OBSERVATIONS...

CITY           SKY/WX    TMP DP  RH WIND       PRES   REMARKS
GOODLAND KS    PTCLDY    65  58  78 W5        29.99S
HILL CITY KS   CLEAR     66  61  84 NW5       29.92F
IMPERIAL NEB   CLEAR     67  54  63 W3        29.98S
MCCOOK NEB     PTCLDY    63  58  83 CALM      29.95R
AKRON CO       CLOUDY    67  53  61 S10       30.05F
BURLINGTON CO  MOCLDY    64  59  83 W8        30.03F
LIMON CO       CLOUDY    58  53  84 CALM      30.12S
$$

...UNOFFICIAL OBSERVATIONS...

CITY           SKY/WX    TMP DP  RH WIND       PRES   REMARKS
COLBY KS       CLEAR     64  61  88 SW5       29.97S
NORTON KS      CLEAR     61  55  82 CALM      29.95R
SHARON SPRINGS   N/A     65  60  85 SW5         N/A
KIT CARSON CO    N/A     65  55  69 MISG        N/A
$$



USA.gov is the U.S. government's official web portal to all federal, state and local government web resources and services.